User: anonymous   Login
Location: Unspecified
(0.0000°N, 0.0000°E)
Time: 01:16:20
(UTC+00:00)
Language:

KKS-1 - Orbit

View from above orbital plane
View from above orbital plane
View from above satellite
View from above satellite

Ground track
Ground track

The orbit data is extracted from the following two-line orbital elements,

1 33499U 09002H   18200.59764365 +.00000074 +00000-0 +18961-4 0  9995
2 33499 098.3571 023.4172 0009088 181.6977 178.4202 14.75345335509532
Epoch (UTC): 19 July 2018 14:20:36
Eccentricity: 0.0009088
inclination: 98.3571°
perigee height: 637 km
apogee height: 650 km
right ascension of ascending node: 23.4172°
argument of perigee: 181.6977°
revolutions per day: 14.75345335
mean anomaly at epoch: 178.4202°
orbit number at epoch: 50953

The dashed part of the orbit path shows where the satellite is in the earth's shadow,  

DLR